Regional Weather Roundup
Issued by NWS Raleigh/Durham, NC

Home | Current Version | Previous Version | Text Only | Print | Product List | Glossary On
Versions: 1 2 3 4 5 6 7 8 9 10 11 12 13 14 15 16 17 18 19 20 21 22 23 24 25 26 27 28 29 30 31 32 33 34 35 36 37 38 39 40 41 42 43 44 45 46 47 48 49 50
000
ASUS42 KRAH 240910
RWRRAH
NORTH CAROLINA WEATHER ROUNDUP
NATIONAL WEATHER SERVICE RALEIGH NC
500 AM EDT SUN MAY 24 2015

NOTE: "FAIR" INDICATES FEW OR NO CLOUDS BELOW 12,000 FEET WITH NO
SIGNIFICANT WEATHER AND/OR OBSTRUCTIONS TO VISIBILITY.

NCZ001-053-055-056-065-067-241000-
WESTERN NORTH CAROLINA

CITY           SKY/WX    TMP DP  RH WIND       PRES   REMARKS
ASHEVILLE      CLEAR     50  45  83 CALM      30.40S
JEFFERSON      PTCLDY    55  39  55 CALM      30.41F
MORGANTON      CLEAR     46  46  98 CALM      30.43S
HICKORY        CLEAR     57  47  69 CALM      30.38S
RUTHERFORDTON  CLEAR     51  48  89 CALM      30.39S
MOUNT AIRY     PTCLDY    55  50  84 CALM      30.41S
BOONE          CLEAR     43  42  99 CALM      30.43S
$$

NCZ021-022-025-041-071-084-088-241000-
CENTRAL NORTH CAROLINA

CITY           SKY/WX    TMP DP  RH WIND       PRES   REMARKS
CHARLOTTE      CLEAR     60  49  66 S3        30.38S
GREENSBORO     CLEAR     57  49  74 SW5       30.38R
WINSTON-SALEM  CLEAR     59  49  69 VRB3      30.40R
RALEIGH-DURHAM PTCLDY    56  53  90 CALM      30.39R
FORT BRAGG     CLEAR     57  54  89 CALM      30.37R
FAYETTEVILLE   CLEAR     56  53  90 N3        30.38R
BURLINGTON     CLEAR     53  49  86 CALM      30.38R
LAURINBURG     CLEAR     54  50  86 CALM      30.39R
$$

NCZ011-015-027-028-043-044-047-080-103-241000-
NORTHEASTERN NORTH CAROLINA

CITY           SKY/WX    TMP DP  RH WIND       PRES   REMARKS
ROCKY MT-WILSO CLEAR     54  52  93 CALM      30.39S
GREENVILLE     CLEAR     54  54 100 CALM      30.39S
WASHINGTON     CLEAR     54  51  90 CALM      30.39S
ELIZABETH CITY CLEAR     58  54  86 E5        30.40S
MANTEO         CLEAR     60  55  83 E6        30.40S
CAPE HATTERAS  CLEAR     61  56  83 NE6       30.39R
$$

NCZ078-087-090-091-093-098-101-241000-
SOUTHEASTERN NORTH CAROLINA

CITY           SKY/WX    TMP DP  RH WIND       PRES   REMARKS
LUMBERTON      CLEAR     55  53  93 CALM      30.37R
GOLDSBORO      CLEAR     55  53  93 CALM      30.37R
KINSTON        CLEAR     54  53  96 CALM      30.39S
KENANSVILLE    CLEAR     53  52  95 CALM      30.39S
NEW BERN       CLEAR     57  53  86 CALM      30.39S
CHERRY POINT   CLEAR     59  54  83 CALM      30.39R
BEAUFORT       CLEAR     61  60  97 NE3       30.38R
JACKSONVILLE   CLEAR     60  56  86 NE5       30.37S
WILMINGTON     PTCLDY    61  59  93 NE3       30.37R
$$



USA.gov is the U.S. government's official web portal to all federal, state and local government web resources and services.